SCP
0 0 0 1 3 3 2 2 2 2 1 1 1 0 0 0 1 1 1 0 0 0 0 0 0 0 0 0 0 0 0 0 0 0 0 0 0 0 0 0 0 0 0
2 3 3 2 1 6 4 3 2 1 1 1 1 0 0 0 0 -0 -0 0 0 0 0 0 0 0 0 0 0 0 0 0 0 0 0 0 0 0 0 0 0 0 0
4 1 1 1 0 0 2 3 2 1 1 1 1 0 0 1 0 0 0 0 0 0 0 0 0 0 0 0 0 0 0 0 0 0 0 0 0 0 0 0 0 0 0
2 0 0 0 0 0 1 2 2 1 2 1 0 0 1 1 0 0 0 0 0 0 0 0 0 0 0 0 0 0 0 0 0 0 0 0 0 0 0 0 0 0 0
3 1 0 0 0 0 -0 1 1 1 1 0 1 0 0 0 0 0 0 0 0 0 0 0 0 0 0 0 0 0 0 0 0 0 0 0 0 0 0 0 0 0 0
4 4 2 1 2 2 2 2 1 1 0 1 0 0 0 0 0 0 0 0 0 0 0 0 0 0 0 0 0 0 0 0 0 0 0 0 0 0 0 0 0 0 0
5 5 3 2 3 2 3 2 1 1 1 0 1 0 0 -0 -0 0 0 0 0 0 0 0 0 0 0 0 0 0 0 0 0 0 0 0 0 0 0 0 0 0 0
5 4 3 3 3 2 2 2 1 1 1 1 1 0 0 0 0 0 0 0 0 0 0 0 0 0 0 0 0 0 0 0 0 0 0 0 0 0 0 0 0 0 0
4 5 3 3 3 3 2 1 1 2 2 1 1 0 0 0 0 0 0 0 0 0 0 0 0 0 0 0 0 0 0 0 0 0 0 0 0 0 0 0 0 0 0
3 5 4 3 3 2 1 1 2 2 1 1 1 0 0 0 0 0 0 0 0 0 0 0 0 0 0 0 0 0 0 0 0 0 0 0 0 0 0 0 0 0 0
3 3 3 3 3 3 2 2 2 1 1 0 0 0 0 0 0 0 0 0 0 0 0 0 0 0 0 0 0 0 0 0 0 0 0 0 0 0 0 0 0 0 0
2 3 3 1 3 3 3 3 2 1 0 0 0 0 0 0 0 0 0 0 0 0 0 0 0 0 0 0 0 0 0 0 0 0 0 0 0 0 0 0 0 0 0
2 2 3 1 5 3 4 3 2 0 0 0 0 0 -0 -0 0 0 0 0 0 0 0 0 0 0 0 0 0 0 0 0 0 0 0 0 0 0 0 0 0 0 0
3 3 2 1 3 4 5 2 1 0 0 0 0 0 0 0 0 0 0 0 0 0 0 0 0 0 0 0 0 0 0 0 0 0 0 0 0 0 0 0 0 0 0
4 3 1 0 0 0 2 0 0 0 0 0 0 0 0 0 0 0 0 0 0 0 0 0 0 0 0 0 0 0 0 0 0 0 0 0 0 0 0 0 0 0 0
2 2 0 0 0 0 0 0 0 0 0 0 0 0 0 0 0 0 0 0 0 0 0 0 0 0 0 0 0 0 0 0 0 0 0 0 0 0 0 0 0 0 0
0 2 1 0 0 0 0 0 0 0 0 0 0 0 0 0 0 0 0 0 0 0 0 0 0 0 0 0 0 0 0 0 0 0 0 0 0 0 0 0 0 0 0
0 1 1 0 0 0 0 0 0 0 0 0 0 0 -0 0 0 0 0 0 0 0 0 0 0 0 0 0 0 0 0 0 0 0 0 0 0 0 0 0 0 0 0
0 0 1 1 0 0 0 0 0 0 0 0 -0 -0 0 0 0 0 0 0 0 0 0 0 0 0 0 0 0 0 0 0 0 0 -0 -0 0 0 0 0 0 0 0
0 0 1 0 0 0 0 0 0 0 0 -0 0 0 0 0 0 0 0 0 0 0 0 0 0 0 0 0 0 0 0 0 0 0 0 0 0 0 0 0 0 0 0
0 0 1 0 0 0 0 0 0 0 0 0 0 0 0 0 0 0 0 0 0 0 0 0 0 0 0 0 0 0 0 0 0 0 0 0 0 0 0 0 0 0 0
0 0 0 0 0 0 0 0 0 0 0 0 0 0 0 0 0 0 0 0 0 0 0 0 0 0 0 0 0 0 0 0 0 0 0 0 0 0 0 0 0 0 0
0 0 0 0 0 0 0 0 0 0 0 0 0 0 0 0 0 0 0 0 0 0 0 0 0 0 0 0 0 0 0 0 0 0 0 0 0 0 0 0 0 0 0
0 0 0 0 0 0 0 0 0 0 0 0 0 0 0 0 0 0 0 0 0 0 0 0 0 0 0 0 0 0 0 0 0 0 0 0 0 0 0 0 0 0 0
0 0 0 0 0 0 0 0 0 0 0 0 0 0 0 0 0 0 0 0 0 0 0 0 0 0 0 0 0 0 0 0 0 0 0 0 0 0 0 0 0 0 0
0 0 0 0 0 0 0 0 0 0 0 0 0 0 0 0 0 0 0 0 0 0 0 0 0 0 0 0 0 0 0 0 0 0 0 0 0 0 0 0 0 0 0
Wind_Speed_500mb
60 52 71 56 89 106 101 91 83 84 75 69 66 58 48 38 41 30 29 23 26 23 17 23 22 16 22 26 24 9 4 9 14 10 29 17 24 22 33 37 39 40 37
71 69 89 60 60 87 98 87 76 70 79 66 65 56 52 43 38 37 30 26 26 26 21 17 14 19 21 25 14 6 5 8 9 11 5 9 11 16 23 28 38 32 30
62 68 58 78 97 67 89 86 79 70 72 66 61 52 55 45 44 42 33 28 27 22 17 17 19 16 6 8 4 5 8 3 11 18 9 8 9 7 17 29 39 31 34
73 72 80 89 79 66 60 82 73 67 72 69 57 57 63 58 48 40 33 31 21 15 13 10 7 3 3 2 3 7 6 8 8 18 24 26 21 16 13 25 35 24 33
85 83 85 86 86 75 65 65 65 67 67 67 62 64 62 57 45 35 31 21 16 15 12 12 9 3 3 5 5 9 8 12 19 21 22 17 16 24 28 23 45 32 41
88 82 76 67 74 78 70 69 69 70 65 71 62 65 65 57 45 38 29 21 20 18 18 11 5 6 6 9 11 16 19 21 22 24 24 26 29 28 25 25 35 41 42
91 100 86 82 72 70 67 66 69 75 71 65 60 60 54 48 44 39 33 25 23 24 19 13 12 10 9 13 19 24 26 22 23 22 25 25 27 23 28 30 38 40 39
101 109 98 89 82 76 69 66 77 76 75 63 62 57 47 43 41 38 32 28 28 26 20 18 16 14 15 20 24 27 30 30 24 18 21 22 23 22 24 28 36 42 40
94 105 101 95 94 89 88 85 92 76 69 62 55 48 49 50 45 37 31 29 25 26 22 18 17 21 26 25 25 27 26 28 24 24 26 20 15 22 21 16 23 26 32
89 94 107 104 101 98 91 85 85 82 71 55 55 57 56 53 46 40 37 29 28 24 20 20 24 29 30 30 28 28 24 25 26 25 22 22 22 26 25 23 22 23 29
95 100 105 111 108 98 91 100 89 92 78 64 64 60 53 51 46 41 34 33 27 23 23 26 30 35 32 30 29 28 27 24 22 21 21 25 28 32 31 29 27 27 27
92 93 105 110 108 95 90 102 95 91 81 69 67 57 55 46 47 42 38 34 28 28 28 28 33 39 35 32 25 24 22 21 19 18 18 24 29 32 34 35 33 28 20
86 99 97 106 108 97 95 95 86 90 85 69 65 65 50 52 48 44 40 33 32 34 33 28 34 38 38 33 27 26 23 20 19 17 20 25 30 34 39 39 31 26 25
100 90 87 109 90 76 86 88 88 87 82 73 69 61 60 53 46 44 40 38 39 39 38 39 41 39 37 33 32 26 20 15 16 14 19 26 34 41 40 34 28 26 27
93 94 91 93 107 81 60 96 81 73 71 72 70 63 59 52 48 44 42 43 43 43 41 40 39 38 33 30 26 23 17 13 15 15 23 32 37 36 36 27 24 27 28
54 97 94 104 80 61 72 100 68 63 69 71 66 65 62 57 53 47 45 44 42 41 36 31 30 32 33 30 20 18 18 15 18 16 28 34 33 33 27 19 17 21 25
34 73 100 112 106 94 69 77 88 80 74 73 70 71 65 59 51 48 49 48 43 34 32 31 31 35 32 26 20 17 17 17 19 25 31 36 38 36 31 24 18 16 24
29 73 121 112 106 107 105 98 95 83 79 78 76 65 62 56 54 53 52 50 43 32 28 34 34 34 33 26 22 18 19 13 16 24 33 38 38 36 32 26 20 20 23
27 72 113 121 115 118 117 110 89 86 82 77 70 67 61 59 56 53 48 47 45 38 35 36 35 30 32 26 21 15 11 12 8 17 30 36 33 34 30 24 20 18 16
52 51 103 103 112 115 120 120 106 91 85 77 68 61 60 56 54 51 45 42 40 42 35 37 31 30 27 28 21 11 7 6 9 19 28 28 29 36 37 32 30 23 25
52 60 91 106 102 109 107 96 93 87 81 75 66 63 58 56 56 48 39 46 45 40 32 33 32 28 23 21 17 15 10 6 12 16 25 29 32 34 35 37 32 30 23
75 74 82 95 104 93 97 104 94 87 82 76 72 66 61 60 53 52 49 46 39 42 30 31 32 25 19 14 13 10 6 7 10 17 23 25 28 27 29 32 28 22 21
75 87 91 91 95 97 96 97 95 90 86 82 76 68 58 53 49 52 50 45 30 37 41 33 26 20 17 16 10 5 8 10 14 17 20 22 21 21 24 28 32 22 28
92 84 93 101 95 94 94 92 92 87 84 79 74 65 60 56 52 43 47 48 46 42 33 32 28 18 9 9 8 8 10 14 17 14 14 15 13 13 19 24 32 25 29
83 90 99 108 98 96 93 87 83 81 83 83 75 68 64 61 64 54 47 41 38 35 37 36 26 17 7 6 10 11 15 16 15 11 8 7 10 13 16 24 31 27 28
52 67 100 103 102 98 88 78 69 77 83 78 69 66 67 66 58 58 55 45 39 37 39 31 21 16 8 11 13 16 19 17 8 7 10 12 12 17 18 23 27 30 27
Wind_Direction_500mb
194 196 229 253 177 173 177 178 176 183 182 183 181 174 174 166 172 171 177 195 185 199 207 216 227 243 267 277 299 315 265 303 347 35 126 113 85 79 59 27 20 22 22
147 165 179 176 209 174 176 180 182 186 188 185 180 174 177 175 184 186 188 191 196 202 213 222 251 275 292 302 317 144 203 325 353 32 122 159 132 89 54 24 19 40 38
165 161 186 197 205 199 190 184 181 182 185 179 178 175 187 183 189 189 205 210 205 201 218 236 261 284 318 349 70 109 169 81 23 43 80 82 60 119 52 30 34 43 34
177 175 182 193 185 191 176 181 182 185 179 174 177 184 188 189 188 197 195 203 216 220 212 210 190 174 82 71 91 116 129 110 89 75 77 84 63 53 12 25 29 41 30
173 172 177 185 181 201 195 185 177 178 174 177 182 186 191 190 183 189 200 202 193 173 164 158 152 147 125 118 117 109 121 104 107 102 109 106 69 56 37 9 13 48 35
171 182 193 183 191 187 181 176 180 183 176 178 189 194 195 190 189 188 191 179 173 165 160 156 158 145 137 120 112 106 118 113 106 104 89 76 63 43 34 25 23 16 24
171 173 180 177 181 184 176 180 175 171 175 181 193 194 191 196 195 190 192 184 173 164 159 154 157 145 131 113 107 106 114 124 117 101 87 79 66 44 38 26 14 5 6
168 171 174 176 174 177 185 183 176 172 176 184 188 191 193 185 177 181 184 176 165 163 156 159 146 144 120 111 113 120 112 110 120 96 84 80 66 44 32 23 11 2 360
166 171 177 177 178 180 184 183 176 173 176 182 185 186 180 181 172 177 178 153 160 157 154 153 143 130 118 118 122 118 113 106 107 94 85 76 65 41 41 15 18 5 1
172 168 171 171 175 185 184 177 173 173 177 176 183 176 178 173 178 181 168 168 160 155 154 146 139 139 130 118 119 119 113 107 99 85 76 68 53 35 25 15 6 358 1
173 173 175 176 178 179 174 171 175 173 172 178 173 170 173 178 177 178 169 161 152 150 144 135 136 141 130 119 119 116 112 106 96 80 65 54 37 26 22 19 11 12 10
175 168 175 180 179 176 174 175 175 171 173 172 173 174 172 175 176 176 165 155 150 137 131 133 134 138 137 130 129 124 111 101 89 71 54 38 26 16 11 9 14 18 21
167 169 174 173 169 168 170 172 162 166 163 171 175 168 173 179 171 166 156 148 145 143 145 142 132 133 131 133 126 115 104 96 85 64 33 21 16 6 7 6 14 23 23
164 167 172 176 166 160 172 154 155 160 158 169 175 165 172 170 161 158 155 152 153 149 144 140 141 141 140 137 130 123 114 101 80 48 29 18 7 1 4 7 14 17 15
155 162 171 170 171 163 156 155 155 156 162 169 165 163 164 162 160 159 152 151 153 147 154 155 152 150 151 141 139 136 127 105 77 50 25 16 7 359 358 6 4 8 17
157 157 155 153 156 195 190 153 164 170 168 169 163 164 163 161 161 154 150 149 148 158 157 157 158 158 156 146 141 132 113 84 66 44 13 9 5 8 6 360 342 349 20
231 157 142 136 143 154 127 156 172 175 172 168 165 163 161 160 157 155 152 150 153 161 147 148 151 156 152 146 140 123 90 65 47 20 11 8 7 8 11 14 4 12 24
272 164 146 148 148 148 159 167 169 169 168 162 165 162 162 158 157 156 155 155 159 158 152 148 150 151 142 137 130 115 85 62 29 5 2 3 7 10 17 25 39 54 56
243 184 162 156 152 156 165 169 171 168 166 164 164 164 161 160 159 159 158 166 167 143 142 142 148 148 139 137 131 120 103 84 50 1 359 5 10 17 26 30 48 73 80
231 215 169 162 161 159 163 166 165 165 162 162 162 161 165 162 157 157 155 163 149 140 142 143 146 143 143 145 144 121 113 94 25 7 10 18 31 36 38 33 37 55 51
194 206 165 160 157 163 173 163 162 162 160 159 161 164 164 159 156 148 147 141 140 144 149 139 142 141 145 146 139 125 127 64 25 22 29 39 43 44 37 31 38 51 48
165 190 166 157 158 157 159 160 160 159 159 160 164 164 160 157 149 147 149 149 153 146 148 143 137 138 138 136 129 120 96 64 38 43 47 50 48 46 32 24 39 53 51
183 188 152 148 150 159 168 157 156 161 161 163 162 161 157 146 155 157 156 161 166 155 150 144 143 136 113 73 84 73 78 60 60 65 57 64 57 48 40 20 27 46 50
145 147 144 144 147 156 160 157 157 165 164 162 159 157 149 151 155 148 141 139 145 145 148 170 180 146 117 33 96 96 83 83 91 83 60 76 71 62 53 21 33 48 49
143 149 148 149 150 154 155 155 163 166 162 161 156 154 152 158 155 151 157 166 166 172 175 177 175 167 146 104 111 101 104 107 95 77 62 87 60 52 45 33 32 42 46
130 137 149 143 147 154 157 158 166 169 163 155 156 157 158 162 161 162 163 166 168 159 174 175 192 193 176 128 120 108 102 109 89 50 59 75 59 52 52 46 29 36 46
Wind_Speed_850mb
60 52 71 56 89 106 101 91 83 84 75 69 66 58 48 38 41 30 29 23 26 23 17 23 22 16 22 26 24 9 4 9 14 10 29 17 24 22 33 37 39 40 37
71 69 89 60 60 87 98 87 76 70 79 66 65 56 52 43 38 37 30 26 26 26 21 17 14 19 21 25 14 6 5 8 9 11 5 9 11 16 23 28 38 32 30
62 68 58 78 97 67 89 86 79 70 72 66 61 52 55 45 44 42 33 28 27 22 17 17 19 16 6 8 4 5 8 3 11 18 9 8 9 7 17 29 39 31 34
73 72 80 89 79 66 60 82 73 67 72 69 57 57 63 58 48 40 33 31 21 15 13 10 7 3 3 2 3 7 6 8 8 18 24 26 21 16 13 25 35 24 33
85 83 85 86 86 75 65 65 65 67 67 67 62 64 62 57 45 35 31 21 16 15 12 12 9 3 3 5 5 9 8 12 19 21 22 17 16 24 28 23 45 32 41
88 82 76 67 74 78 70 69 69 70 65 71 62 65 65 57 45 38 29 21 20 18 18 11 5 6 6 9 11 16 19 21 22 24 24 26 29 28 25 25 35 41 42
91 100 86 82 72 70 67 66 69 75 71 65 60 60 54 48 44 39 33 25 23 24 19 13 12 10 9 13 19 24 26 22 23 22 25 25 27 23 28 30 38 40 39
101 109 98 89 82 76 69 66 77 76 75 63 62 57 47 43 41 38 32 28 28 26 20 18 16 14 15 20 24 27 30 30 24 18 21 22 23 22 24 28 36 42 40
94 105 101 95 94 89 88 85 92 76 69 62 55 48 49 50 45 37 31 29 25 26 22 18 17 21 26 25 25 27 26 28 24 24 26 20 15 22 21 16 23 26 32
89 94 107 104 101 98 91 85 85 82 71 55 55 57 56 53 46 40 37 29 28 24 20 20 24 29 30 30 28 28 24 25 26 25 22 22 22 26 25 23 22 23 29
95 100 105 111 108 98 91 100 89 92 78 64 64 60 53 51 46 41 34 33 27 23 23 26 30 35 32 30 29 28 27 24 22 21 21 25 28 32 31 29 27 27 27
92 93 105 110 108 95 90 102 95 91 81 69 67 57 55 46 47 42 38 34 28 28 28 28 33 39 35 32 25 24 22 21 19 18 18 24 29 32 34 35 33 28 20
86 99 97 106 108 97 95 95 86 90 85 69 65 65 50 52 48 44 40 33 32 34 33 28 34 38 38 33 27 26 23 20 19 17 20 25 30 34 39 39 31 26 25
100 90 87 109 90 76 86 88 88 87 82 73 69 61 60 53 46 44 40 38 39 39 38 39 41 39 37 33 32 26 20 15 16 14 19 26 34 41 40 34 28 26 27
93 94 91 93 107 81 60 96 81 73 71 72 70 63 59 52 48 44 42 43 43 43 41 40 39 38 33 30 26 23 17 13 15 15 23 32 37 36 36 27 24 27 28
54 97 94 104 80 61 72 100 68 63 69 71 66 65 62 57 53 47 45 44 42 41 36 31 30 32 33 30 20 18 18 15 18 16 28 34 33 33 27 19 17 21 25
34 73 100 112 106 94 69 77 88 80 74 73 70 71 65 59 51 48 49 48 43 34 32 31 31 35 32 26 20 17 17 17 19 25 31 36 38 36 31 24 18 16 24
29 73 121 112 106 107 105 98 95 83 79 78 76 65 62 56 54 53 52 50 43 32 28 34 34 34 33 26 22 18 19 13 16 24 33 38 38 36 32 26 20 20 23
27 72 113 121 115 118 117 110 89 86 82 77 70 67 61 59 56 53 48 47 45 38 35 36 35 30 32 26 21 15 11 12 8 17 30 36 33 34 30 24 20 18 16
52 51 103 103 112 115 120 120 106 91 85 77 68 61 60 56 54 51 45 42 40 42 35 37 31 30 27 28 21 11 7 6 9 19 28 28 29 36 37 32 30 23 25
52 60 91 106 102 109 107 96 93 87 81 75 66 63 58 56 56 48 39 46 45 40 32 33 32 28 23 21 17 15 10 6 12 16 25 29 32 34 35 37 32 30 23
75 74 82 95 104 93 97 104 94 87 82 76 72 66 61 60 53 52 49 46 39 42 30 31 32 25 19 14 13 10 6 7 10 17 23 25 28 27 29 32 28 22 21
75 87 91 91 95 97 96 97 95 90 86 82 76 68 58 53 49 52 50 45 30 37 41 33 26 20 17 16 10 5 8 10 14 17 20 22 21 21 24 28 32 22 28
92 84 93 101 95 94 94 92 92 87 84 79 74 65 60 56 52 43 47 48 46 42 33 32 28 18 9 9 8 8 10 14 17 14 14 15 13 13 19 24 32 25 29
83 90 99 108 98 96 93 87 83 81 83 83 75 68 64 61 64 54 47 41 38 35 37 36 26 17 7 6 10 11 15 16 15 11 8 7 10 13 16 24 31 27 28
52 67 100 103 102 98 88 78 69 77 83 78 69 66 67 66 58 58 55 45 39 37 39 31 21 16 8 11 13 16 19 17 8 7 10 12 12 17 18 23 27 30 27
Wind_Direction_850mb
194 196 229 253 177 173 177 178 176 183 182 183 181 174 174 166 172 171 177 195 185 199 207 216 227 243 267 277 299 315 265 303 347 35 126 113 85 79 59 27 20 22 22
147 165 179 176 209 174 176 180 182 186 188 185 180 174 177 175 184 186 188 191 196 202 213 222 251 275 292 302 317 144 203 325 353 32 122 159 132 89 54 24 19 40 38
165 161 186 197 205 199 190 184 181 182 185 179 178 175 187 183 189 189 205 210 205 201 218 236 261 284 318 349 70 109 169 81 23 43 80 82 60 119 52 30 34 43 34
177 175 182 193 185 191 176 181 182 185 179 174 177 184 188 189 188 197 195 203 216 220 212 210 190 174 82 71 91 116 129 110 89 75 77 84 63 53 12 25 29 41 30
173 172 177 185 181 201 195 185 177 178 174 177 182 186 191 190 183 189 200 202 193 173 164 158 152 147 125 118 117 109 121 104 107 102 109 106 69 56 37 9 13 48 35
171 182 193 183 191 187 181 176 180 183 176 178 189 194 195 190 189 188 191 179 173 165 160 156 158 145 137 120 112 106 118 113 106 104 89 76 63 43 34 25 23 16 24
171 173 180 177 181 184 176 180 175 171 175 181 193 194 191 196 195 190 192 184 173 164 159 154 157 145 131 113 107 106 114 124 117 101 87 79 66 44 38 26 14 5 6
168 171 174 176 174 177 185 183 176 172 176 184 188 191 193 185 177 181 184 176 165 163 156 159 146 144 120 111 113 120 112 110 120 96 84 80 66 44 32 23 11 2 360
166 171 177 177 178 180 184 183 176 173 176 182 185 186 180 181 172 177 178 153 160 157 154 153 143 130 118 118 122 118 113 106 107 94 85 76 65 41 41 15 18 5 1
172 168 171 171 175 185 184 177 173 173 177 176 183 176 178 173 178 181 168 168 160 155 154 146 139 139 130 118 119 119 113 107 99 85 76 68 53 35 25 15 6 358 1
173 173 175 176 178 179 174 171 175 173 172 178 173 170 173 178 177 178 169 161 152 150 144 135 136 141 130 119 119 116 112 106 96 80 65 54 37 26 22 19 11 12 10
175 168 175 180 179 176 174 175 175 171 173 172 173 174 172 175 176 176 165 155 150 137 131 133 134 138 137 130 129 124 111 101 89 71 54 38 26 16 11 9 14 18 21
167 169 174 173 169 168 170 172 162 166 163 171 175 168 173 179 171 166 156 148 145 143 145 142 132 133 131 133 126 115 104 96 85 64 33 21 16 6 7 6 14 23 23
164 167 172 176 166 160 172 154 155 160 158 169 175 165 172 170 161 158 155 152 153 149 144 140 141 141 140 137 130 123 114 101 80 48 29 18 7 1 4 7 14 17 15
155 162 171 170 171 163 156 155 155 156 162 169 165 163 164 162 160 159 152 151 153 147 154 155 152 150 151 141 139 136 127 105 77 50 25 16 7 359 358 6 4 8 17
157 157 155 153 156 195 190 153 164 170 168 169 163 164 163 161 161 154 150 149 148 158 157 157 158 158 156 146 141 132 113 84 66 44 13 9 5 8 6 360 342 349 20
231 157 142 136 143 154 127 156 172 175 172 168 165 163 161 160 157 155 152 150 153 161 147 148 151 156 152 146 140 123 90 65 47 20 11 8 7 8 11 14 4 12 24
272 164 146 148 148 148 159 167 169 169 168 162 165 162 162 158 157 156 155 155 159 158 152 148 150 151 142 137 130 115 85 62 29 5 2 3 7 10 17 25 39 54 56
243 184 162 156 152 156 165 169 171 168 166 164 164 164 161 160 159 159 158 166 167 143 142 142 148 148 139 137 131 120 103 84 50 1 359 5 10 17 26 30 48 73 80
231 215 169 162 161 159 163 166 165 165 162 162 162 161 165 162 157 157 155 163 149 140 142 143 146 143 143 145 144 121 113 94 25 7 10 18 31 36 38 33 37 55 51
194 206 165 160 157 163 173 163 162 162 160 159 161 164 164 159 156 148 147 141 140 144 149 139 142 141 145 146 139 125 127 64 25 22 29 39 43 44 37 31 38 51 48
165 190 166 157 158 157 159 160 160 159 159 160 164 164 160 157 149 147 149 149 153 146 148 143 137 138 138 136 129 120 96 64 38 43 47 50 48 46 32 24 39 53 51
183 188 152 148 150 159 168 157 156 161 161 163 162 161 157 146 155 157 156 161 166 155 150 144 143 136 113 73 84 73 78 60 60 65 57 64 57 48 40 20 27 46 50
145 147 144 144 147 156 160 157 157 165 164 162 159 157 149 151 155 148 141 139 145 145 148 170 180 146 117 33 96 96 83 83 91 83 60 76 71 62 53 21 33 48 49
143 149 148 149 150 154 155 155 163 166 162 161 156 154 152 158 155 151 157 166 166 172 175 177 175 167 146 104 111 101 104 107 95 77 62 87 60 52 45 33 32 42 46
130 137 149 143 147 154 157 158 166 169 163 155 156 157 158 162 161 162 163 166 168 159 174 175 192 193 176 128 120 108 102 109 89 50 59 75 59 52 52 46 29 36 46